When you browse on this site, cookies collect data to enhance your experience and personalize the content and advertising you see.
Visit our Privacy Policy to learn more. By continuing to use the site, you agree to this use of cookies and data.
  • In Czech Republic
  • List of Countries
  • For 7 days
  • Water Temperature
  • Weather Map
  • Weather Widgets
  • user-avatar
    Login

    Hourly Weather Viesite

    Today, 3 April, Friday

    Time Temperature Precipitation Wind Pressure Humidity
    00:00 +2°C° 0 mm 7 mps 736 mmHg 75%
    01:00 +2°C° 0 mm 7 mps 735 mmHg 76%
    02:00 +1°C° 0 mm 8 mps 734 mmHg 76%
    03:00 +1°C° 0.1 mm 8 mps 734 mmHg 80%
    04:00 +1°C° 0.1 mm 8 mps 733 mmHg 83%
    05:00 0°C° 0.1 mm 8 mps 733 mmHg 86%
    06:00 0°C° 0.5 mm 8 mps 733 mmHg 81%
    07:00 0°C° 0.5 mm 8 mps 733 mmHg 76%
    08:00 0°C° 0.5 mm 8 mps 733 mmHg 71%
    09:00 +1°C° 0.2 mm 8 mps 734 mmHg 70%
    10:00 +1°C° 0.2 mm 9 mps 734 mmHg 69%
    11:00 +2°C° 0.2 mm 9 mps 734 mmHg 69%
    12:00 +3°C° 0.2 mm 9 mps 735 mmHg 63%
    13:00 +4°C° 0.2 mm 8 mps 736 mmHg 57%
    14:00 +5°C° 0.2 mm 8 mps 736 mmHg 51%
    15:00 +5°C° 0.1 mm 8 mps 737 mmHg 49%
    16:00 +4°C° 0.1 mm 7 mps 738 mmHg 48%
    17:00 +4°C° 0.1 mm 6 mps 738 mmHg 47%
    18:00 +3°C° 0 mm 5 mps 739 mmHg 50%
    19:00 +1°C° 0 mm 5 mps 740 mmHg 53%
    20:00 0°C° 0 mm 4 mps 740 mmHg 56%
    21:00 0°C° 0 mm 4 mps 741 mmHg 60%
    22:00 -1°C° 0 mm 4 mps 742 mmHg 63%
    23:00 -1°C° 0 mm 4 mps 742 mmHg 67%

    Tomorrow, 4 April, Saturday

    Time Temperature Precipitation Wind Pressure Humidity
    00:00 -1°C° 0 mm 4 mps 743 mmHg 67%
    01:00 -1°C° 0 mm 3 mps 744 mmHg 68%
    02:00 -1°C° 0 mm 3 mps 744 mmHg 68%
    03:00 -1°C° 0 mm 3 mps 745 mmHg 70%
    04:00 -2°C° 0 mm 3 mps 746 mmHg 71%
    05:00 -2°C° 0 mm 3 mps 747 mmHg 73%
    06:00 -1°C° 0 mm 3 mps 747 mmHg 68%
    07:00 0°C° 0 mm 3 mps 748 mmHg 62%
    08:00 +1°C° 0 mm 3 mps 749 mmHg 57%
    09:00 +1°C° 0 mm 4 mps 750 mmHg 52%
    10:00 +4°C° 0 mm 4 mps 750 mmHg 46%
    11:00 +5°C° 0 mm 4 mps 750 mmHg 40%
    12:00 +5°C° 0.1 mm 5 mps 751 mmHg 42%
    13:00 +5°C° 0.1 mm 5 mps 751 mmHg 44%
    14:00 +4°C° 0.1 mm 6 mps 752 mmHg 46%
    15:00 +3°C° 0.2 mm 6 mps 752 mmHg 48%
    16:00 +3°C° 0.2 mm 6 mps 753 mmHg 50%
    17:00 +2°C° 0.2 mm 6 mps 753 mmHg 52%
    18:00 +1°C° 0.1 mm 5 mps 754 mmHg 59%
    19:00 0°C° 0.1 mm 4 mps 755 mmHg 67%
    20:00 -1°C° 0.1 mm 3 mps 757 mmHg 74%
    21:00 -1°C° 0 mm 3 mps 758 mmHg 74%
    22:00 -2°C° 0 mm 3 mps 758 mmHg 74%
    23:00 -2°C° 0 mm 3 mps 759 mmHg 74%

    Day after tomorrow, 5 April, Sunday

    Time Temperature Precipitation Wind Pressure Humidity
    00:00 -2°C° 0 mm 3 mps 760 mmHg 72%
    01:00 -2°C° 0 mm 3 mps 761 mmHg 70%
    02:00 -2°C° 0 mm 2 mps 762 mmHg 69%
    03:00 -3°C° 0 mm 2 mps 762 mmHg 69%
    04:00 -3°C° 0 mm 2 mps 763 mmHg 69%
    05:00 -3°C° 0 mm 2 mps 763 mmHg 69%
    06:00 -2°C° 0 mm 2 mps 764 mmHg 62%
    07:00 0°C° 0 mm 3 mps 764 mmHg 56%
    08:00 0°C° 0 mm 4 mps 765 mmHg 49%
    09:00 +1°C° 0 mm 4 mps 765 mmHg 43%
    10:00 +4°C° 0 mm 4 mps 765 mmHg 38%
    11:00 +5°C° 0 mm 4 mps 766 mmHg 33%
    12:00 +5°C° 0 mm 4 mps 766 mmHg 33%
    13:00 +6°C° 0 mm 4 mps 766 mmHg 32%
    14:00 +6°C° 0 mm 4 mps 766 mmHg 32%
    15:00 +7°C° 0 mm 3 mps 766 mmHg 34%
    16:00 +7°C° 0 mm 3 mps 766 mmHg 37%
    17:00 +7°C° 0 mm 2 mps 766 mmHg 39%
    18:00 +5°C° 0 mm 2 mps 766 mmHg 46%
    19:00 +3°C° 0 mm 2 mps 766 mmHg 52%
    20:00 +3°C° 0 mm 1 mps 766 mmHg 58%
    21:00 +2°C° 0 mm 1 mps 766 mmHg 60%
    22:00 +1°C° 0 mm 2 mps 766 mmHg 62%
    23:00 +1°C° 0 mm 2 mps 767 mmHg 64%

    6 April, Monday

    Time Temperature Precipitation Wind Pressure Humidity
    00:00 -1°C° 0 mm 2 mps 767 mmHg 66%
    01:00 +1°C° 0 mm 1 mps 767 mmHg 68%
    02:00 +1°C° 0 mm 1 mps 767 mmHg 70%
    03:00 -1°C° 0 mm 2 mps 767 mmHg 72%
    04:00 -1°C° 0 mm 2 mps 767 mmHg 74%
    05:00 -1°C° 0 mm 2 mps 767 mmHg 76%
    06:00 +1°C° 0 mm 2 mps 767 mmHg 72%
    07:00 +2°C° 0 mm 2 mps 767 mmHg 68%
    08:00 +3°C° 0 mm 3 mps 767 mmHg 64%
    09:00 +4°C° 0 mm 3 mps 767 mmHg 56%
    10:00 +6°C° 0 mm 4 mps 767 mmHg 48%
    11:00 +7°C° 0 mm 4 mps 767 mmHg 41%
    12:00 +8°C° 0 mm 4 mps 766 mmHg 40%
    13:00 +10°C° 0 mm 4 mps 766 mmHg 38%
    14:00 +10°C° 0 mm 4 mps 766 mmHg 37%
    15:00 +10°C° 0 mm 4 mps 765 mmHg 39%
    16:00 +10°C° 0 mm 4 mps 764 mmHg 41%
    17:00 +10°C° 0 mm 4 mps 764 mmHg 43%
    18:00 +9°C° 0 mm 3 mps 764 mmHg 50%
    19:00 +7°C° 0 mm 3 mps 763 mmHg 56%
    20:00 +5°C° 0 mm 3 mps 763 mmHg 63%
    21:00 +4°C° 0 mm 3 mps 763 mmHg 63%
    22:00 +4°C° 0 mm 3 mps 763 mmHg 63%
    23:00 +4°C° 0 mm 3 mps 763 mmHg 64%

    7 April, Tuesday

    Time Temperature Precipitation Wind Pressure Humidity
    00:00 +4°C° 0 mm 3 mps 763 mmHg 65%
    01:00 +3°C° 0 mm 3 mps 762 mmHg 66%
    02:00 +3°C° 0 mm 3 mps 762 mmHg 68%
    03:00 +3°C° 0 mm 4 mps 762 mmHg 69%
    04:00 +3°C° 0 mm 4 mps 762 mmHg 70%
    05:00 +3°C° 0 mm 4 mps 761 mmHg 72%
    06:00 +4°C° 0 mm 4 mps 761 mmHg 69%
    07:00 +5°C° 0 mm 4 mps 761 mmHg 65%
    08:00 +6°C° 0 mm 5 mps 760 mmHg 62%
    09:00 +8°C° 0 mm 5 mps 760 mmHg 59%
    10:00 +9°C° 0 mm 5 mps 760 mmHg 55%
    11:00 +12°C° 0 mm 5 mps 759 mmHg 52%
    12:00 +13°C° 0 mm 5 mps 759 mmHg 52%
    13:00 +14°C° 0 mm 6 mps 759 mmHg 52%
    14:00 +15°C° 0 mm 6 mps 759 mmHg 52%
    15:00 +14°C° 0 mm 5 mps 759 mmHg 55%
    16:00 +14°C° 0 mm 5 mps 759 mmHg 58%
    17:00 +14°C° 0 mm 5 mps 759 mmHg 61%
    18:00 +12°C° 0 mm 4 mps 759 mmHg 68%
    19:00 +11°C° 0 mm 4 mps 759 mmHg 75%
    20:00 +10°C° 0 mm 3 mps 760 mmHg 82%
    21:00 +9°C° 0 mm 3 mps 760 mmHg 82%
    22:00 +8°C° 0 mm 3 mps 761 mmHg 83%
    23:00 +8°C° 0 mm 3 mps 761 mmHg 84%

    8 April, Wednesday

    Time Temperature Precipitation Wind Pressure Humidity
    00:00 +7°C° 0 mm 3 mps 761 mmHg 86%
    01:00 +6°C° 0 mm 2 mps 761 mmHg 89%
    02:00 +5°C° 0 mm 2 mps 761 mmHg 91%
    03:00 +5°C° 0 mm 2 mps 761 mmHg 89%
    04:00 +4°C° 0 mm 2 mps 761 mmHg 87%
    05:00 +4°C° 0 mm 2 mps 761 mmHg 86%
    06:00 +4°C° 0 mm 3 mps 762 mmHg 79%
    07:00 +4°C° 0 mm 3 mps 762 mmHg 72%
    08:00 +5°C° 0 mm 3 mps 762 mmHg 66%
    09:00 +7°C° 0 mm 4 mps 762 mmHg 61%
    10:00 +8°C° 0 mm 4 mps 762 mmHg 56%
    11:00 +11°C° 0 mm 4 mps 762 mmHg 51%
    12:00 +11°C° 0 mm 4 mps 762 mmHg 47%
    13:00 +12°C° 0 mm 4 mps 762 mmHg 43%
    14:00 +13°C° 0 mm 5 mps 762 mmHg 40%
    15:00 +12°C° 0 mm 4 mps 762 mmHg 38%
    16:00 +12°C° 0 mm 4 mps 762 mmHg 37%
    17:00 +11°C° 0 mm 4 mps 761 mmHg 35%
    18:00 +10°C° 0 mm 3 mps 761 mmHg 41%
    19:00 +8°C° 0 mm 2 mps 761 mmHg 46%
    20:00 +7°C° 0 mm 1 mps 762 mmHg 52%
    21:00 +7°C° 0 mm 1 mps 762 mmHg 54%
    22:00 +6°C° 0 mm 1 mps 762 mmHg 57%
    23:00 +5°C° 0 mm 1 mps 762 mmHg 60%
    Show more